• en France
  • Liste des pays
  • À 7 jours
  • Température de l'eau
  • Carte satellitaire
  • Carte météo
  • Widgets météo
  • user-avatar
    Se connecter

    Météo par heure à Maradi

    Ce jour, 20 Septembre, Jeudi

    Heure Température Précipitation Vent Pression Humidité
    00:00 +34°C° 0 mm 2 m/s 727 mmHg 32%
    01:00 +32°C° 0 mm 2 m/s 727 mmHg 35%
    02:00 +32°C° 0 mm 2 m/s 727 mmHg 38%
    03:00 +31°C° 0 mm 3 m/s 726 mmHg 41%
    04:00 +30°C° 0 mm 3 m/s 727 mmHg 48%
    05:00 +30°C° 0 mm 3 m/s 727 mmHg 55%
    06:00 +29°C° 0 mm 3 m/s 727 mmHg 61%
    07:00 +31°C° 0 mm 3 m/s 728 mmHg 56%
    08:00 +34°C° 0 mm 3 m/s 728 mmHg 51%
    09:00 +35°C° 0 mm 3 m/s 729 mmHg 46%
    10:00 +37°C° 0 mm 2 m/s 728 mmHg 40%
    11:00 +39°C° 0 mm 1 m/s 728 mmHg 33%
    12:00 +40°C° 0 mm 1 m/s 728 mmHg 26%
    13:00 +41°C° 0 mm 1 m/s 727 mmHg 24%
    14:00 +41°C° 0 mm 2 m/s 726 mmHg 21%
    15:00 +42°C° 0 mm 2 m/s 725 mmHg 19%
    16:00 +41°C° 0 mm 2 m/s 725 mmHg 20%
    17:00 +40°C° 0 mm 1 m/s 725 mmHg 22%
    18:00 +39°C° 0 mm 1 m/s 725 mmHg 23%
    19:00 +37°C° 0 mm 1 m/s 726 mmHg 24%
    20:00 +37°C° 0 mm 1 m/s 726 mmHg 25%
    21:00 +37°C° 0 mm 2 m/s 727 mmHg 26%
    22:00 +37°C° 0 mm 2 m/s 726 mmHg 29%
    23:00 +36°C° 0 mm 2 m/s 726 mmHg 32%

    Demain, 21 Septembre, Vendredi

    Heure Température Précipitation Vent Pression Humidité
    00:00 +35°C° 0 mm 2 m/s 726 mmHg 34%
    01:00 +35°C° 0 mm 3 m/s 726 mmHg 36%
    02:00 +34°C° 0 mm 3 m/s 726 mmHg 38%
    03:00 +34°C° 0 mm 3 m/s 725 mmHg 40%
    04:00 +33°C° 0 mm 4 m/s 726 mmHg 45%
    05:00 +33°C° 0 mm 4 m/s 726 mmHg 51%
    06:00 +32°C° 0 mm 4 m/s 726 mmHg 56%
    07:00 +33°C° 0 mm 4 m/s 727 mmHg 53%
    08:00 +35°C° 0 mm 5 m/s 728 mmHg 49%
    09:00 +36°C° 0 mm 5 m/s 728 mmHg 46%
    10:00 +39°C° 0 mm 5 m/s 728 mmHg 40%
    11:00 +40°C° 0 mm 4 m/s 727 mmHg 34%
    12:00 +42°C° 0 mm 4 m/s 727 mmHg 29%
    13:00 +42°C° 0 mm 3 m/s 726 mmHg 27%
    14:00 +41°C° 0 mm 2 m/s 725 mmHg 25%
    15:00 +41°C° 0 mm 1 m/s 724 mmHg 24%
    16:00 +40°C° 0.1 mm 2 m/s 724 mmHg 27%
    17:00 +39°C° 0.1 mm 2 m/s 725 mmHg 30%
    18:00 +37°C° 0.1 mm 3 m/s 725 mmHg 33%
    19:00 +36°C° 0 mm 3 m/s 725 mmHg 35%
    20:00 +36°C° 0 mm 4 m/s 726 mmHg 38%
    21:00 +35°C° 0 mm 4 m/s 727 mmHg 40%
    22:00 +34°C° 0 mm 5 m/s 726 mmHg 44%
    23:00 +33°C° 0 mm 5 m/s 726 mmHg 47%

    Après-demain, 22 Septembre, Samedi

    Heure Température Précipitation Vent Pression Humidité
    00:00 +32°C° 0 mm 5 m/s 726 mmHg 50%
    01:00 +32°C° 0 mm 4 m/s 726 mmHg 51%
    02:00 +32°C° 0 mm 4 m/s 725 mmHg 52%
    03:00 +30°C° 0 mm 3 m/s 725 mmHg 52%
    04:00 +30°C° 0 mm 3 m/s 726 mmHg 53%
    05:00 +30°C° 0 mm 4 m/s 726 mmHg 54%
    06:00 +30°C° 0 mm 4 m/s 727 mmHg 55%
    07:00 +32°C° 0 mm 5 m/s 727 mmHg 52%
    08:00 +33°C° 0 mm 5 m/s 728 mmHg 50%
    09:00 +34°C° 0 mm 6 m/s 729 mmHg 47%
    10:00 +35°C° 0 mm 6 m/s 728 mmHg 44%
    11:00 +36°C° 0 mm 6 m/s 728 mmHg 41%
    12:00 +39°C° 0 mm 5 m/s 727 mmHg 37%
    13:00 +39°C° 0 mm 5 m/s 727 mmHg 36%
    14:00 +40°C° 0 mm 4 m/s 726 mmHg 34%
    15:00 +40°C° 0 mm 4 m/s 726 mmHg 32%
    16:00 +38°C° 0 mm 3 m/s 726 mmHg 35%
    17:00 +37°C° 0 mm 3 m/s 726 mmHg 37%
    18:00 +37°C° 0 mm 3 m/s 726 mmHg 39%
    19:00 +36°C° 0 mm 4 m/s 726 mmHg 44%
    20:00 +35°C° 0 mm 5 m/s 726 mmHg 49%
    21:00 +34°C° 0 mm 5 m/s 726 mmHg 54%
    22:00 +33°C° 0 mm 5 m/s 726 mmHg 56%
    23:00 +33°C° 0 mm 5 m/s 726 mmHg 58%

    23 Septembre, Dimanche

    Heure Température Précipitation Vent Pression Humidité
    00:00 +33°C° 0 mm 5 m/s 726 mmHg 59%
    01:00 +32°C° 0 mm 5 m/s 726 mmHg 62%
    02:00 +30°C° 0 mm 5 m/s 726 mmHg 65%
    03:00 +30°C° 0 mm 4 m/s 725 mmHg 67%
    04:00 +30°C° 0 mm 5 m/s 726 mmHg 69%
    05:00 +29°C° 0 mm 5 m/s 727 mmHg 70%
    06:00 +29°C° 0 mm 5 m/s 727 mmHg 72%
    07:00 +30°C° 0 mm 6 m/s 728 mmHg 67%
    08:00 +32°C° 0 mm 6 m/s 728 mmHg 63%
    09:00 +34°C° 0 mm 6 m/s 729 mmHg 58%
    10:00 +35°C° 0 mm 6 m/s 728 mmHg 53%
    11:00 +38°C° 0 mm 6 m/s 728 mmHg 48%
    12:00 +39°C° 0 mm 5 m/s 727 mmHg 42%
    13:00 +39°C° 0 mm 5 m/s 727 mmHg 40%
    14:00 +40°C° 0 mm 4 m/s 726 mmHg 38%
    15:00 +39°C° 0 mm 3 m/s 726 mmHg 36%
    16:00 +38°C° 0 mm 3 m/s 726 mmHg 38%
    17:00 +37°C° 0 mm 3 m/s 726 mmHg 41%
    18:00 +37°C° 0 mm 3 m/s 726 mmHg 43%
    19:00 +36°C° 0 mm 5 m/s 727 mmHg 49%
    20:00 +35°C° 0 mm 6 m/s 727 mmHg 54%
    21:00 +34°C° 0 mm 7 m/s 727 mmHg 60%
    22:00 +33°C° 0 mm 6 m/s 727 mmHg 62%
    23:00 +32°C° 0 mm 6 m/s 727 mmHg 64%

    24 Septembre, Lundi

    Heure Température Précipitation Vent Pression Humidité
    00:00 +32°C° 0 mm 6 m/s 726 mmHg 66%
    01:00 +30°C° 0 mm 5 m/s 726 mmHg 67%
    02:00 +30°C° 0 mm 5 m/s 726 mmHg 68%
    03:00 +29°C° 0 mm 4 m/s 726 mmHg 69%
    04:00 +29°C° 0 mm 4 m/s 727 mmHg 70%
    05:00 +29°C° 0 mm 4 m/s 727 mmHg 71%
    06:00 +29°C° 0 mm 4 m/s 728 mmHg 72%
    07:00 +30°C° 0 mm 4 m/s 728 mmHg 66%
    08:00 +33°C° 0 mm 4 m/s 729 mmHg 60%
    09:00 +34°C° 0 mm 4 m/s 729 mmHg 54%
    10:00 +36°C° 0 mm 4 m/s 728 mmHg 49%
    11:00 +37°C° 0 mm 4 m/s 728 mmHg 45%
    12:00 +38°C° 0 mm 4 m/s 727 mmHg 40%
    13:00 +39°C° 0 mm 3 m/s 727 mmHg 37%
    14:00 +39°C° 0 mm 2 m/s 726 mmHg 35%
    15:00 +40°C° 0 mm 1 m/s 726 mmHg 32%
    16:00 +39°C° 0 mm 1 m/s 726 mmHg 34%
    17:00 +37°C° 0 mm 1 m/s 726 mmHg 36%
    18:00 +38°C° 0 mm 2 m/s 726 mmHg 37%
    19:00 +36°C° 0.8 mm 3 m/s 727 mmHg 44%
    20:00 +35°C° 0.8 mm 4 m/s 727 mmHg 51%
    21:00 +33°C° 0.8 mm 5 m/s 727 mmHg 58%
    22:00 +33°C° 2.1 mm 6 m/s 727 mmHg 61%
    23:00 +32°C° 2.1 mm 6 m/s 728 mmHg 63%

    25 Septembre, Mardi

    Heure Température Précipitation Vent Pression Humidité
    00:00 +30°C° 2.1 mm 6 m/s 728 mmHg 65%
    01:00 +30°C° 0 mm 6 m/s 727 mmHg 68%
    02:00 +29°C° 0 mm 5 m/s 727 mmHg 70%
    03:00 +29°C° 0 mm 5 m/s 727 mmHg 73%
    04:00 +28°C° 0 mm 5 m/s 727 mmHg 74%
    05:00 +28°C° 0 mm 4 m/s 728 mmHg 75%
    06:00 +28°C° 0 mm 4 m/s 728 mmHg 77%
    07:00 +30°C° 0 mm 3 m/s 728 mmHg 69%
    08:00 +31°C° 0 mm 3 m/s 729 mmHg 62%
    09:00 +34°C° 0 mm 3 m/s 729 mmHg 55%
    10:00 +35°C° 0 mm 3 m/s 729 mmHg 49%
    11:00 +37°C° 0 mm 3 m/s 728 mmHg 44%
    12:00 +38°C° 0 mm 3 m/s 728 mmHg 38%
    13:00 +39°C° 0 mm 3 m/s 727 mmHg 36%
    14:00 +39°C° 0 mm 3 m/s 726 mmHg 34%
    15:00 +40°C° 0 mm 3 m/s 726 mmHg 32%
    16:00 +39°C° 0.1 mm 2 m/s 726 mmHg 33%
    17:00 +38°C° 0.1 mm 2 m/s 726 mmHg 35%
    18:00 +38°C° 0.1 mm 2 m/s 726 mmHg 36%
    19:00 +36°C° 0.6 mm 4 m/s 726 mmHg 42%
    20:00 +35°C° 0.6 mm 5 m/s 727 mmHg 48%
    21:00 +34°C° 0.6 mm 7 m/s 727 mmHg 54%
    22:00 +33°C° 0 mm 6 m/s 727 mmHg 56%
    23:00 +33°C° 0 mm 5 m/s 726 mmHg 57%
    Voir plus